Location: Barcelona
(41.3830°N, 2.1830°E)
Time: 15:42:34

ISS - Pass Details

Date: 14 March 2018
Orbit: 403 x 406 km, 51.6° (Epoch: 17 March)

Event Time Altitude Azimuth Distance (km) Brightness Sun altitude
Exits shadow 05:20:06 15° 347° (NNW) 1,218 -1.4 -20.4°
Maximum altitude 05:21:19 17° 14° (NNE) 1,103 -1.3 -20.1°
Drops below altitude 10° 05:23:36 10° 58° (ENE) 1,463 0.1 -19.7°
Sets 05:26:10 0° 79° (E) 2,320 1.7 -19.2°
